Location: *
(50.6089°N, 2.2719°E)
Time: 16:46:20
(UTC+00:00)

STARLINK-51 - Pass Details

Date: 18 October 2019
Orbit: 548 x 551 km, 53.0° (Epoch: 12 November)

Event Time Altitude Azimuth Distance (km) Brightness Sun altitude
Rises 18:40:37 0° 267° (W) 2,716 8.8 -17.7°
Reaches altitude 10° 18:42:52 10° 271° (W) 1,823 7.5 -18.1°
Maximum altitude 18:46:58 64° 353° (N) 614 3.8 -18.7°
Enters shadow 18:48:15 40° 58° (ENE) 814 4.1 -18.9°
